Terminal Aerodrome Forecast
Issued by NWS

Home | Current Version | Previous Version | Text Only | Print | Product List | Glossary On
Versions: 1 2 3 4 5 6 7 8 9 10 11 12 13 14 15 16 17 18 19
000
FTUS46 KPQR 210913 AAA
TAFONP
TAF AMD
KONP 210913Z 2109/2206 00000KT P6SM SCT010 BKN200
     FM211700 18005KT 5SM -RA BR OVC100
     FM220000 30008KT 4SM -RA BR OVC025
     FM220300 32004KT 6SM -RA BR SCT015 OVC030=

USA.gov is the U.S. government's official web portal to all federal, state and local government web resources and services.